Clintonville, WI

12:37 AM CST on December 12, 2019 (GMT -0600)
Clintonville Municipal

Weather History for KCLI - October, 2019

Change the Weather History Date:

Tuesday, October 22, 2019

  Actual Average Record
Temperature  
Mean Temperature 45 °F -  
Max Temperature 49 °F 56 °F 78 °F (1953)
Min Temperature 41 °F 33 °F 20 °F (1980)
Degree Days  
Heating Degree Days 20    
Moisture  
Dew Point 39 °F    
Average Humidity 81    
Maximum Humidity 91    
Minimum Humidity 71    
Precipitation  
Precipitation 0.10 in - - ()
Sea Level Pressure  
Sea Level Pressure 29.37 in    
Wind  
Wind Speed 13 mph (SW)    
Max Wind Speed 18 mph    
Max Gust Speed 32 mph    
Visibility 9 miles    
Events Rain    
Averages and records for this station are not official NWS values.
T = Trace of Precipitation, MM = Missing Value Source: NWS Daily Summary

Daily Weather History Graph

Daily Weather History Graph

Search for Another Location

Airport or City:

Astronomy

Oct. 22, 2019 Rise Set
Actual Time 7:18 AM CDT 5:59 PM CDT
Civil Twilight 6:49 AM CDT 6:28 PM CDT
Nautical Twilight 6:15 AM CDT 7:02 PM CDT
Astronomical Twilight 5:41 AM CDT 7:36 PM CDT
Moon 12:08 AM CDT (10/22) 3:27 PM CDT (10/22)
Length of Visible Light 11h 39m
Length of Day
10h 40m
Last Quarter, 37% of the Moon is Illuminated
Oct 22
Last Quarter
Oct 27
New
Nov 4
First Quarter
Nov 12
Full
Nov 19
Last Quarter

Hourly Weather History & Observations

Time (CDT) Temp. Windchill Dew Point Humidity Pressure Visibility Wind Dir Wind Speed Gust Speed Precip Events Conditions
12:15 AM 48.4 °F - 39.2 °F 71% 29.32 in 10.0 mi South 12.7 mph 16.1 mph N/A   Overcast
12:35 AM 48.4 °F - 39.4 °F 71% 29.32 in 10.0 mi South 11.5 mph - N/A   Overcast
1:15 AM 48.7 °F - 39.7 °F 71% 29.30 in 10.0 mi South 12.7 mph - N/A   Overcast
1:35 AM 49.1 °F - 39.9 °F 71% 29.29 in 10.0 mi South 15.0 mph 18.4 mph N/A   Overcast
1:55 AM 49.3 °F - 40.3 °F 71% 29.28 in 10.0 mi South 15.0 mph 19.6 mph N/A   Overcast
2:15 AM 49.1 °F - 40.5 °F 72% 29.27 in 10.0 mi SSE 15.0 mph 18.4 mph N/A   Overcast
2:35 AM 49.3 °F - 40.5 °F 72% 29.26 in 10.0 mi SSE 12.7 mph 19.6 mph N/A   Overcast
2:55 AM 49.5 °F - 40.6 °F 72% 29.24 in 10.0 mi SSE 12.7 mph 20.7 mph N/A Rain Rain
3:15 AM 47.3 °F - 42.8 °F 84% 29.25 in 7.0 mi South 10.4 mph 21.9 mph 0.02 in Rain Rain
3:35 AM 46.6 °F - 42.3 °F 85% 29.24 in 10.0 mi South 13.8 mph 18.4 mph 0.02 in   Overcast
3:55 AM 46.0 °F 39.6 °F 40.8 °F 82% 29.24 in 10.0 mi SSW 15.0 mph 21.9 mph 0.02 in Rain Rain
4:15 AM 45.1 °F 40.3 °F 40.5 °F 84% 29.23 in 10.0 mi South 9.2 mph 17.3 mph 0.01 in Rain Light Rain
4:35 AM 44.8 °F 39.4 °F 41.0 °F 87% 29.22 in 10.0 mi South 10.4 mph - 0.02 in Rain Light Rain
4:55 AM 44.6 °F 39.2 °F 41.2 °F 88% 29.21 in 10.0 mi SSE 10.4 mph - 0.02 in Rain Light Rain
5:15 AM 44.6 °F 39.7 °F 41.2 °F 88% 29.21 in 10.0 mi South 9.2 mph - 0.01 in Rain Light Rain
5:35 AM 44.2 °F 38.8 °F 41.5 °F 90% 29.21 in 7.0 mi SSE 10.4 mph - 0.02 in Rain Rain
5:55 AM 44.2 °F 38.8 °F 41.7 °F 91% 29.20 in 10.0 mi South 10.4 mph - 0.03 in Rain Light Rain
6:15 AM 44.2 °F 38.8 °F 41.2 °F 89% 29.20 in 10.0 mi SSW 10.4 mph - N/A Rain Light Rain
6:35 AM 43.9 °F 39.3 °F 41.2 °F 90% 29.20 in 5.0 mi SW 8.1 mph - 0.02 in Rain Light Rain
6:55 AM 43.7 °F 38.1 °F 40.5 °F 88% 29.21 in 7.0 mi WSW 10.4 mph 17.3 mph 0.03 in Rain Light Rain
7:15 AM 43.3 °F 37.7 °F 40.5 °F 90% 29.21 in 10.0 mi SW 10.4 mph - N/A Rain Light Rain
7:35 AM 43.2 °F 38.4 °F 40.5 °F 90% 29.21 in 3.0 mi SW 8.1 mph 19.6 mph N/A   Drizzle
7:55 AM 43.2 °F 37.4 °F 40.5 °F 90% 29.22 in 10.0 mi WSW 10.4 mph - N/A   Overcast
8:15 AM 43.3 °F 38.6 °F 40.5 °F 90% 29.23 in 10.0 mi WSW 8.1 mph - N/A   Overcast
8:35 AM 43.7 °F 37.7 °F 40.5 °F 88% 29.24 in 10.0 mi WSW 11.5 mph - N/A   Overcast
8:55 AM 43.7 °F 38.6 °F 40.1 °F 87% 29.25 in 10.0 mi WSW 9.2 mph 17.3 mph N/A   Overcast
9:15 AM 43.5 °F 38.9 °F 40.1 °F 88% 29.26 in 5.0 mi WSW 8.1 mph - N/A   Light Drizzle
9:35 AM 44.2 °F 39.2 °F 39.9 °F 85% 29.27 in 10.0 mi WSW 9.2 mph - N/A   Overcast
9:55 AM 43.9 °F 38.3 °F 40.3 °F 87% 29.27 in 7.0 mi West 10.4 mph - N/A Rain Rain
10:15 AM 44.2 °F 39.2 °F 41.0 °F 88% 29.28 in 10.0 mi WSW 9.2 mph - N/A   Overcast
10:35 AM 44.6 °F 39.2 °F 41.9 °F 90% 29.28 in 2.5 mi SW 10.4 mph - N/A Rain Rain
10:55 AM 45.1 °F 40.3 °F 42.1 °F 89% 29.29 in 10.0 mi WSW 9.2 mph 18.4 mph N/A   Overcast
11:15 AM 45.3 °F 38.1 °F 41.5 °F 87% 29.30 in 10.0 mi WSW 17.3 mph 24.2 mph N/A   Overcast
11:35 AM 44.8 °F 38.7 °F 40.6 °F 85% 29.32 in 10.0 mi West 12.7 mph 21.9 mph N/A   Overcast
11:55 AM 45.0 °F 38.2 °F 40.1 °F 83% 29.33 in 10.0 mi WSW 15.0 mph 24.2 mph N/A   Overcast
12:35 PM 44.4 °F 37.9 °F 40.8 °F 87% 29.34 in 3.0 mi WSW 13.8 mph 20.7 mph N/A   Light Drizzle
12:55 PM 45.1 °F 38.4 °F 40.6 °F 84% 29.35 in 7.0 mi WSW 15.0 mph 20.7 mph N/A Rain Light Rain
1:15 PM 46.2 °F 39.8 °F 40.1 °F 79% 29.35 in 10.0 mi West 15.0 mph 20.7 mph N/A   Overcast
1:35 PM 45.9 °F 39.4 °F 39.2 °F 78% 29.36 in 10.0 mi WSW 15.0 mph 24.2 mph N/A   Overcast
1:55 PM 45.5 °F 38.3 °F 38.8 °F 78% 29.37 in 10.0 mi West 17.3 mph 24.2 mph N/A   Overcast
2:15 PM 45.3 °F 37.8 °F 38.3 °F 76% 29.38 in 10.0 mi West 18.4 mph 25.3 mph N/A   Overcast
2:35 PM 44.1 °F 36.5 °F 39.2 °F 83% 29.39 in 5.0 mi West 17.3 mph 28.8 mph N/A   Light Drizzle
2:55 PM 44.4 °F 37.9 °F 38.8 °F 81% 29.40 in 7.0 mi WSW 13.8 mph 25.3 mph N/A Rain Light Rain
3:15 PM 43.9 °F 36.5 °F 38.8 °F 82% 29.41 in 10.0 mi WSW 16.1 mph 25.3 mph N/A   Overcast
3:35 PM 44.2 °F 36.7 °F 38.5 °F 80% 29.42 in 10.0 mi West 17.3 mph 25.3 mph N/A   Overcast
3:55 PM 43.9 °F 37.2 °F 39.0 °F 83% 29.44 in 10.0 mi WSW 13.8 mph 17.3 mph N/A   Overcast
4:15 PM 44.2 °F 38.0 °F 38.3 °F 80% 29.44 in 10.0 mi West 12.7 mph 32.2 mph N/A   Overcast
4:35 PM 43.9 °F 36.2 °F 37.6 °F 78% 29.45 in 10.0 mi West 17.3 mph 23.0 mph N/A   Overcast
4:55 PM 43.7 °F 36.0 °F 37.8 °F 80% 29.46 in 10.0 mi WSW 17.3 mph 25.3 mph N/A   Overcast
5:15 PM 43.7 °F 36.9 °F 37.2 °F 78% 29.47 in 10.0 mi West 13.8 mph 23.0 mph N/A   Overcast
5:35 PM 43.7 °F 36.6 °F 36.9 °F 77% 29.48 in 10.0 mi WSW 15.0 mph 23.0 mph N/A   Overcast
5:55 PM 42.8 °F 36.2 °F 37.6 °F 82% 29.49 in 10.0 mi WSW 12.7 mph 19.6 mph N/A   Light Drizzle
6:15 PM 43.2 °F 37.4 °F 36.9 °F 78% 29.50 in 10.0 mi WSW 10.4 mph - N/A   Overcast
6:35 PM 43.0 °F 35.7 °F 36.0 °F 76% 29.51 in 10.0 mi WSW 15.0 mph 24.2 mph N/A   Overcast
6:55 PM 42.8 °F 35.8 °F 36.3 °F 78% 29.52 in 10.0 mi WSW 13.8 mph 17.3 mph N/A   Overcast
7:15 PM 42.4 °F 35.0 °F 36.5 °F 79% 29.53 in 10.0 mi West 15.0 mph 21.9 mph N/A   Overcast
7:35 PM 42.4 °F 35.0 °F 36.1 °F 78% 29.53 in 10.0 mi West 15.0 mph 18.4 mph N/A   Overcast
7:55 PM 42.4 °F 34.7 °F 35.8 °F 77% 29.54 in 10.0 mi West 16.1 mph 21.9 mph N/A   Overcast
8:15 PM 42.3 °F 34.8 °F 35.6 °F 77% 29.55 in 10.0 mi WSW 15.0 mph 19.6 mph N/A   Overcast
8:35 PM 42.3 °F 33.8 °F 35.1 °F 76% 29.55 in 10.0 mi West 18.4 mph 27.6 mph N/A   Overcast
8:55 PM 41.9 °F 34.3 °F 35.6 °F 78% 29.55 in 10.0 mi West 15.0 mph 19.6 mph N/A   Overcast
9:15 PM 41.9 °F 34.3 °F 35.6 °F 78% 29.56 in 10.0 mi West 15.0 mph 19.6 mph N/A   Overcast
9:35 PM 42.1 °F 33.6 °F 34.7 °F 75% 29.57 in 10.0 mi West 18.4 mph 25.3 mph N/A   Overcast
9:55 PM 42.3 °F 35.5 °F 34.3 °F 74% 29.57 in 10.0 mi West 12.7 mph 23.0 mph N/A   Overcast
10:15 PM 42.3 °F 35.5 °F 34.2 °F 73% 29.58 in 10.0 mi West 12.7 mph 19.6 mph N/A   Overcast
10:35 PM 42.1 °F 34.9 °F 33.8 °F 72% 29.58 in 10.0 mi West 13.8 mph 20.7 mph N/A   Overcast
10:55 PM 42.1 °F 35.2 °F 33.8 °F 72% 29.58 in 10.0 mi West 12.7 mph 20.7 mph N/A   Overcast
11:15 PM 42.1 °F 35.2 °F 33.8 °F 72% 29.59 in 10.0 mi West 12.7 mph 20.7 mph N/A   Overcast
11:35 PM 42.3 °F 35.5 °F 33.4 °F 71% 29.59 in 10.0 mi West 12.7 mph 19.6 mph N/A   Overcast